| time (UTC) | temp F | wind direction | speed MPH | gust MPH | rain 1hr in | rain 24hr in | rain mn in | humidity % | barometer mb |
| 20260906200716 | 63 | 252 | 2.0 | 3.0 | 0.00 | 0.00 | 0.00 | 61 | 1024.9 |
| 20260906200209 | 64 | 173 | 1.0 | 3.0 | 0.00 | 0.00 | 0.00 | 61 | 1024.9 |
| 20260906195710 | 64 | 324 | 1.0 | 3.0 | 0.00 | 0.00 | 0.00 | 60 | 1024.9 |
| 20260906195217 | 64 | 324 | 1.0 | 3.0 | 0.00 | 0.00 | 0.00 | 59 | 1024.8 |
| 20260906194211 | 65 | 321 | 1.0 | 3.0 | 0.00 | 0.00 | 0.00 | 58 | 1024.8 |
| 20260906193704 | 65 | 49 | 0.0 | 0.0 | 0.00 | 0.00 | 0.00 | 58 | 1024.8 |
| 20260906193218 | 65 | 95 | 0.0 | 0.0 | 0.00 | 0.00 | 0.00 | 57 | 1024.7 |
| 20260906192717 | 66 | 95 | 0.0 | 0.0 | 0.00 | 0.00 | 0.00 | 57 | 1024.8 |
| 20260906192216 | 66 | 95 | 0.0 | 1.0 | 0.00 | 0.00 | 0.00 | 57 | 1024.8 |
| 20260906191710 | 67 | 95 | 0.0 | 2.0 | 0.00 | 0.00 | 0.00 | 56 | 1024.8 |
| 20260906191205 | 67 | 95 | 0.0 | 2.0 | 0.00 | 0.00 | 0.00 | 55 | 1024.8 |
| 20260906190221 | 68 | 95 | 1.0 | 3.0 | 0.00 | 0.00 | 0.00 | 54 | 1024.7 |
| 20260906185716 | 68 | 96 | 1.0 | 2.0 | 0.00 | 0.00 | 0.00 | 53 | 1024.6 |
| 20260906184715 | 69 | 74 | 2.0 | 4.0 | 0.00 | 0.00 | 0.00 | 51 | 1024.6 |
| 20260906184212 | 69 | 74 | 2.0 | 4.0 | 0.00 | 0.00 | 0.00 | 51 | 1024.6 |
| 20260906183709 | 69 | 88 | 3.0 | 4.0 | 0.00 | 0.00 | 0.00 | 51 | 1024.6 |
| 20260906183206 | 69 | 71 | 3.0 | 4.0 | 0.00 | 0.00 | 0.00 | 51 | 1024.5 |
| 20260906182719 | 69 | 91 | 2.0 | 4.0 | 0.00 | 0.00 | 0.00 | 50 | 1024.5 |
| 20260906182205 | 69 | 79 | 3.0 | 6.0 | 0.00 | 0.00 | 0.00 | 50 | 1024.4 |
| 20260906181233 | 70 | 75 | 3.0 | 6.0 | 0.00 | 0.00 | 0.00 | 50 | 1024.3 |
| 20260906180735 | 70 | 104 | 3.0 | 6.0 | 0.00 | 0.00 | 0.00 | 50 | 1024.2 |
| 20260906175708 | 71 | 89 | 3.0 | 6.0 | 0.00 | 0.00 | 0.00 | 49 | 1024.1 |
| 20260906175205 | 71 | 101 | 4.0 | 5.0 | 0.00 | 0.00 | 0.00 | 49 | 1024.0 |
| 20260906174719 | 72 | 111 | 3.0 | 8.0 | 0.00 | 0.00 | 0.00 | 49 | 1023.9 |
| 20260906174205 | 72 | 119 | 3.0 | 9.0 | 0.00 | 0.00 | 0.00 | 48 | 1023.9 |
| 20260906173707 | 72 | 144 | 4.0 | 11.0 | 0.00 | 0.00 | 0.00 | 48 | 1023.8 |
| 20260906173216 | 73 | 117 | 5.0 | 11.0 | 0.00 | 0.00 | 0.00 | 48 | 1023.7 |
| 20260906172708 | 73 | 144 | 6.0 | 11.0 | 0.00 | 0.00 | 0.00 | 47 | 1023.6 |
| 20260906172216 | 74 | 134 | 6.0 | 10.0 | 0.00 | 0.00 | 0.00 | 46 | 1023.6 |
| 20260906171205 | 74 | 78 | 4.0 | 10.0 | 0.00 | 0.00 | 0.00 | 45 | 1023.5 |
| 20260906170212 | 75 | 67 | 4.0 | 7.0 | 0.00 | 0.00 | 0.00 | 39 | 1023.4 |
| 20260906165706 | 76 | 76 | 3.0 | 9.0 | 0.00 | 0.00 | 0.00 | 35 | 1023.4 |
| 20260906165214 | 76 | 80 | 4.0 | 12.0 | 0.00 | 0.00 | 0.00 | 33 | 1023.3 |
| 20260906164217 | 76 | 44 | 6.0 | 12.0 | 0.00 | 0.00 | 0.00 | 31 | 1023.1 |
| 20260906163718 | 76 | 33 | 6.0 | 12.0 | 0.00 | 0.00 | 0.00 | 30 | 1023.0 |
| 20260906163205 | 77 | 24 | 5.0 | 12.0 | 0.00 | 0.00 | 0.00 | 30 | 1023.0 |
| 20260906162709 | 77 | 17 | 5.0 | 15.0 | 0.00 | 0.00 | 0.00 | 31 | 1022.9 |
| 20260906162205 | 77 | 16 | 7.0 | 16.0 | 0.00 | 0.00 | 0.00 | 30 | 1022.9 |
| 20260906161712 | 77 | 355 | 8.0 | 16.0 | 0.00 | 0.00 | 0.00 | 30 | 1022.8 |
| 20260906161214 | 77 | 10 | 8.0 | 16.0 | 0.00 | 0.00 | 0.00 | 29 | 1022.8 |
| 20260906160706 | 78 | 345 | 7.0 | 14.0 | 0.00 | 0.00 | 0.00 | 30 | 1022.8 |
| 20260906160210 | 78 | 342 | 7.0 | 15.0 | 0.00 | 0.00 | 0.00 | 30 | 1022.7 |
| 20260906155708 | 78 | 306 | 7.0 | 15.0 | 0.00 | 0.00 | 0.00 | 31 | 1022.7 |
| 20260906155215 | 78 | 36 | 8.0 | 15.0 | 0.00 | 0.00 | 0.00 | 30 | 1022.8 |
| 20260906154709 | 78 | 16 | 8.0 | 14.0 | 0.00 | 0.00 | 0.00 | 30 | 1022.8 |
| 20260906154216 | 78 | 336 | 8.0 | 16.0 | 0.00 | 0.00 | 0.00 | 31 | 1022.8 |
| 20260906153728 | 78 | 17 | 9.0 | 17.0 | 0.00 | 0.00 | 0.00 | 29 | 1022.7 |
| 20260906153209 | 78 | 16 | 9.0 | 17.0 | 0.00 | 0.00 | 0.00 | 29 | 1022.7 |
| 20260906152707 | 78 | 23 | 9.0 | 17.0 | 0.00 | 0.00 | 0.00 | 30 | 1022.8 |
| 20260906152206 | 78 | 355 | 9.0 | 17.0 | 0.00 | 0.00 | 0.00 | 30 | 1022.7 |
| 20260906151711 | 78 | 355 | 8.0 | 18.0 | 0.00 | 0.00 | 0.00 | 30 | 1022.7 |
| 20260906151216 | 78 | 309 | 9.0 | 18.0 | 0.00 | 0.00 | 0.00 | 30 | 1022.7 |
| 20260906150718 | 78 | 311 | 10.0 | 18.0 | 0.00 | 0.00 | 0.00 | 30 | 1022.7 |
| 20260906150216 | 79 | 337 | 10.0 | 19.0 | 0.00 | 0.00 | 0.00 | 30 | 1022.8 |
| 20260906145713 | 79 | 331 | 12.0 | 19.0 | 0.00 | 0.00 | 0.00 | 31 | 1022.8 |
| 20260906144714 | 79 | 342 | 12.0 | 21.0 | 0.00 | 0.00 | 0.00 | 30 | 1022.7 |
| 20260906144217 | 79 | 5 | 12.0 | 20.0 | 0.00 | 0.00 | 0.00 | 30 | 1022.8 |
| 20260906143219 | 79 | 355 | 12.0 | 20.0 | 0.00 | 0.00 | 0.00 | 29 | 1022.8 |
| 20260906142710 | 80 | 350 | 11.0 | 20.0 | 0.00 | 0.00 | 0.00 | 30 | 1022.8 |
| 20260906142216 | 80 | 333 | 11.0 | 20.0 | 0.00 | 0.00 | 0.00 | 30 | 1022.9 |
| 20260906141712 | 80 | 329 | 12.0 | 21.0 | 0.00 | 0.00 | 0.00 | 30 | 1022.9 |
| 20260906141215 | 80 | 345 | 11.0 | 21.0 | 0.00 | 0.00 | 0.00 | 31 | 1022.8 |
| 20260906140705 | 80 | 318 | 10.0 | 21.0 | 0.00 | 0.00 | 0.00 | 31 | 1022.9 |
| 20260906135709 | 80 | 5 | 11.0 | 21.0 | 0.00 | 0.00 | 0.00 | 32 | 1022.9 |
| 20260906135215 | 80 | 63 | 11.0 | 20.0 | 0.00 | 0.00 | 0.00 | 32 | 1023.0 |
| 20260906134718 | 80 | 5 | 12.0 | 22.0 | 0.00 | 0.00 | 0.00 | 31 | 1023.0 |
| 20260906134220 | 79 | 338 | 12.0 | 22.0 | 0.00 | 0.00 | 0.00 | 31 | 1023.0 |
| 20260906133709 | 79 | 327 | 12.0 | 22.0 | 0.00 | 0.00 | 0.00 | 32 | 1023.0 |
| 20260906133218 | 79 | 5 | 12.0 | 24.0 | 0.00 | 0.00 | 0.00 | 33 | 1023.0 |
| 20260906132711 | 79 | 31 | 12.0 | 24.0 | 0.00 | 0.00 | 0.00 | 32 | 1023.0 |
| 20260906132220 | 80 | 0 | 11.0 | 23.0 | 0.00 | 0.00 | 0.00 | 32 | 1023.1 |
| 20260906131205 | 80 | 332 | 11.0 | 21.0 | 0.00 | 0.00 | 0.00 | 33 | 1023.1 |
| 20260906130710 | 80 | 325 | 11.0 | 21.0 | 0.00 | 0.00 | 0.00 | 33 | 1023.2 |
| 20260906130213 | 79 | 340 | 11.0 | 20.0 | 0.00 | 0.00 | 0.00 | 32 | 1023.3 |
| 20260906125705 | 79 | 333 | 11.0 | 22.0 | 0.00 | 0.00 | 0.00 | 33 | 1023.2 |
| 20260906125213 | 79 | 330 | 11.0 | 23.0 | 0.00 | 0.00 | 0.00 | 33 | 1023.1 |
| 20260906124719 | 79 | 33 | 12.0 | 23.0 | 0.00 | 0.00 | 0.00 | 33 | 1023.2 |
| 20260906124218 | 79 | 316 | 12.0 | 23.0 | 0.00 | 0.00 | 0.00 | 33 | 1023.2 |
| 20260906123708 | 79 | 342 | 12.0 | 21.0 | 0.00 | 0.00 | 0.00 | 34 | 1023.3 |
| 20260906123216 | 79 | 342 | 11.0 | 20.0 | 0.00 | 0.00 | 0.00 | 34 | 1023.3 |
| 20260906122709 | 79 | 346 | 12.0 | 20.0 | 0.00 | 0.00 | 0.00 | 33 | 1023.3 |
| 20260906121710 | 78 | 318 | 12.0 | 22.0 | 0.00 | 0.00 | 0.00 | 34 | 1023.4 |
| 20260906121214 | 78 | 341 | 12.0 | 22.0 | 0.00 | 0.00 | 0.00 | 35 | 1023.4 |
| 20260906115555 | 78 | 34 | 9.0 | 18.0 | 0.00 | 0.00 | 0.00 | 38 | 1023.5 |
| 20260906114709 | 78 | 344 | 10.0 | 20.0 | 0.00 | 0.00 | 0.00 | 38 | 1023.5 |
| 20260906114212 | 78 | 342 | 12.0 | 20.0 | 0.00 | 0.00 | 0.00 | 37 | 1023.5 |
| 20260906113718 | 78 | 13 | 12.0 | 20.0 | 0.00 | 0.00 | 0.00 | 38 | 1023.5 |
| 20260906113206 | 78 | 336 | 11.0 | 18.0 | 0.00 | 0.00 | 0.00 | 38 | 1023.6 |
| 20260906112206 | 77 | 332 | 11.0 | 20.0 | 0.00 | 0.00 | 0.00 | 39 | 1023.7 |
| 20260906111707 | 77 | 348 | 11.0 | 20.0 | 0.00 | 0.00 | 0.00 | 41 | 1023.7 |
| 20260906111215 | 77 | 333 | 12.0 | 21.0 | 0.00 | 0.00 | 0.00 | 39 | 1023.7 |
| 20260906110727 | 77 | 317 | 12.0 | 23.0 | 0.00 | 0.00 | 0.00 | 40 | 1023.7 |
| 20260906110216 | 76 | 329 | 12.0 | 23.0 | 0.00 | 0.00 | 0.00 | 39 | 1023.7 |
| 20260906105715 | 76 | 350 | 12.0 | 23.0 | 0.00 | 0.00 | 0.00 | 40 | 1023.8 |
| 20260906105207 | 76 | 13 | 12.0 | 21.0 | 0.00 | 0.00 | 0.00 | 41 | 1023.8 |
| 20260906104705 | 76 | 325 | 12.0 | 21.0 | 0.00 | 0.00 | 0.00 | 42 | 1024.0 |
| 20260906104212 | 76 | 333 | 12.0 | 22.0 | 0.00 | 0.00 | 0.00 | 42 | 1024.0 |
| 20260906103711 | 76 | 327 | 12.0 | 22.0 | 0.00 | 0.00 | 0.00 | 44 | 1023.9 |
| 20260906103208 | 76 | 330 | 11.0 | 22.0 | 0.00 | 0.00 | 0.00 | 43 | 1024.0 |
| 20260906102718 | 76 | 39 | 10.0 | 21.0 | 0.00 | 0.00 | 0.00 | 44 | 1024.0 |
| 20260906102213 | 76 | 76 | 10.0 | 21.0 | 0.00 | 0.00 | 0.00 | 44 | 1024.0 |
| 20260906101705 | 75 | 5 | 11.0 | 20.0 | 0.00 | 0.00 | 0.00 | 44 | 1024.0 |
| 20260906101209 | 76 | 355 | 10.0 | 20.0 | 0.00 | 0.00 | 0.00 | 44 | 1024.0 |
| 20260906100719 | 75 | 325 | 11.0 | 20.0 | 0.00 | 0.00 | 0.00 | 45 | 1024.0 |
| 20260906095709 | 75 | 336 | 10.0 | 22.0 | 0.00 | 0.00 | 0.00 | 45 | 1024.0 |
| 20260906095219 | 75 | 28 | 9.0 | 22.0 | 0.00 | 0.00 | 0.00 | 45 | 1024.1 |
| 20260906094716 | 75 | 9 | 9.0 | 18.0 | 0.00 | 0.00 | 0.00 | 46 | 1024.2 |
| 20260906094217 | 75 | 327 | 10.0 | 18.0 | 0.00 | 0.00 | 0.00 | 47 | 1024.3 |
| 20260906093214 | 74 | 22 | 11.0 | 19.0 | 0.00 | 0.00 | 0.00 | 48 | 1024.3 |
| 20260906092713 | 74 | 339 | 11.0 | 19.0 | 0.00 | 0.00 | 0.00 | 48 | 1024.4 |
| 20260906092214 | 74 | 319 | 10.0 | 18.0 | 0.00 | 0.00 | 0.00 | 48 | 1024.4 |
| 20260906091714 | 74 | 334 | 10.0 | 18.0 | 0.00 | 0.00 | 0.00 | 49 | 1024.4 |
| 20260906091208 | 73 | 315 | 9.0 | 18.0 | 0.00 | 0.00 | 0.00 | 50 | 1024.4 |
| 20260906090714 | 73 | 24 | 8.0 | 18.0 | 0.00 | 0.00 | 0.00 | 52 | 1024.5 |
| 20260906090219 | 73 | 341 | 9.0 | 18.0 | 0.00 | 0.00 | 0.00 | 52 | 1024.5 |
| 20260906085711 | 72 | 355 | 10.0 | 21.0 | 0.00 | 0.00 | 0.00 | 52 | 1024.5 |
| 20260906085207 | 72 | 10 | 11.0 | 21.0 | 0.00 | 0.00 | 0.00 | 52 | 1024.6 |
| 20260906084707 | 72 | 311 | 9.0 | 14.0 | 0.00 | 0.00 | 0.00 | 52 | 1024.7 |
| 20260906084212 | 72 | 309 | 8.0 | 14.0 | 0.00 | 0.00 | 0.00 | 53 | 1024.7 |
| 20260906083717 | 71 | 10 | 8.0 | 16.0 | 0.00 | 0.00 | 0.00 | 53 | 1024.7 |
| 20260906083207 | 71 | 347 | 7.0 | 16.0 | 0.00 | 0.00 | 0.00 | 54 | 1024.8 |
| 20260906082712 | 71 | 9 | 9.0 | 16.0 | 0.00 | 0.00 | 0.00 | 53 | 1024.8 |
| 20260906082250 | 71 | 28 | 8.0 | 14.0 | 0.00 | 0.00 | 0.00 | 54 | 1024.8 |
| 20260906081220 | 70 | 340 | 9.0 | 14.0 | 0.00 | 0.00 | 0.00 | 53 | 1024.8 |
| 20260906080704 | 70 | 28 | 9.0 | 17.0 | 0.00 | 0.00 | 0.00 | 54 | 1024.7 |
| 20260906075716 | 70 | 0 | 8.0 | 15.0 | 0.00 | 0.00 | 0.00 | 54 | 1024.8 |
| 20260906074508 | 70 | 65 | 7.0 | 14.0 | 0.00 | 0.00 | 0.00 | 55 | 1024.7 |
| 20260906073828 | 69 | 5 | 7.0 | 14.0 | 0.00 | 0.00 | 0.00 | 56 | 1024.7 |
| 20260906073215 | 69 | 61 | 8.0 | 14.0 | 0.00 | 0.00 | 0.00 | 56 | 1024.7 |
| 20260906072719 | 69 | 38 | 8.0 | 16.0 | 0.00 | 0.00 | 0.00 | 55 | 1024.6 |
| 20260906072207 | 69 | 322 | 8.0 | 16.0 | 0.00 | 0.00 | 0.00 | 56 | 1024.8 |
| 20260906071704 | 69 | 345 | 8.0 | 16.0 | 0.00 | 0.00 | 0.00 | 57 | 1024.6 |
| 20260906071213 | 68 | 17 | 8.0 | 15.0 | 0.00 | 0.00 | 0.00 | 57 | 1024.6 |
| 20260906070712 | 68 | 338 | 8.0 | 15.0 | 0.00 | 0.00 | 0.00 | 58 | 1024.6 |
| 20260906070211 | 67 | 333 | 8.0 | 16.0 | 0.00 | 0.00 | 0.00 | 58 | 1024.6 |
| 20260906065706 | 67 | 327 | 9.0 | 16.0 | 0.00 | 0.00 | 0.00 | 59 | 1024.6 |
| 20260906064709 | 66 | 355 | 7.0 | 13.0 | 0.00 | 0.00 | 0.00 | 61 | 1024.5 |
| 20260906062718 | 64 | 15 | 4.0 | 10.0 | 0.00 | 0.00 | 0.00 | 66 | 1024.5 |
| 20260906062208 | 63 | 355 | 4.0 | 9.0 | 0.00 | 0.00 | 0.00 | 68 | 1024.5 |
| 20260906061719 | 62 | 322 | 3.0 | 9.0 | 0.00 | 0.00 | 0.00 | 69 | 1024.5 |
| 20260906060716 | 61 | 12 | 2.0 | 5.0 | 0.00 | 0.00 | 0.00 | 71 | 1024.4 |
| 20260906060215 | 60 | 329 | 2.0 | 3.0 | 0.00 | 0.00 | 0.00 | 73 | 1024.4 |
| 20260906055719 | 60 | 324 | 2.0 | 3.0 | 0.00 | 0.00 | 0.00 | 73 | 1024.3 |
| 20260906054737 | 59 | 288 | 1.0 | 7.0 | 0.00 | 0.00 | 0.00 | 74 | 1024.2 |
| 20260906054211 | 59 | 306 | 2.0 | 7.0 | 0.00 | 0.00 | 0.00 | 75 | 1024.2 |
| 20260906053718 | 59 | 298 | 2.0 | 7.0 | 0.00 | 0.00 | 0.00 | 75 | 1024.2 |
| 20260906053208 | 59 | 292 | 2.0 | 5.0 | 0.00 | 0.00 | 0.00 | 75 | 1024.1 |
| 20260906052716 | 58 | 292 | 2.0 | 5.0 | 0.00 | 0.00 | 0.00 | 75 | 1024.1 |
| 20260906052218 | 58 | 302 | 3.0 | 5.0 | 0.00 | 0.00 | 0.00 | 75 | 1024.0 |
| 20260906051721 | 58 | 300 | 3.0 | 5.0 | 0.00 | 0.00 | 0.00 | 75 | 1024.0 |
| 20260906050732 | 58 | 306 | 2.0 | 4.0 | 0.00 | 0.00 | 0.00 | 75 | 1023.9 |
| 20260906050207 | 58 | 313 | 2.0 | 4.0 | 0.00 | 0.00 | 0.00 | 75 | 1023.9 |
| 20260906045705 | 58 | 313 | 2.0 | 3.0 | 0.00 | 0.00 | 0.00 | 75 | 1023.8 |
| 20260906045219 | 58 | 310 | 2.0 | 4.0 | 0.00 | 0.00 | 0.00 | 75 | 1023.7 |
| 20260906044713 | 58 | 313 | 2.0 | 4.0 | 0.00 | 0.00 | 0.00 | 75 | 1023.7 |
| 20260906044218 | 58 | 317 | 2.0 | 4.0 | 0.00 | 0.00 | 0.00 | 75 | 1023.8 |
| 20260906043712 | 58 | 327 | 2.0 | 4.0 | 0.00 | 0.00 | 0.00 | 75 | 1023.7 |
| 20260906043218 | 58 | 312 | 2.0 | 4.0 | 0.00 | 0.00 | 0.00 | 75 | 1023.7 |
| 20260906042710 | 58 | 321 | 2.0 | 4.0 | 0.00 | 0.00 | 0.00 | 75 | 1023.6 |
| 20260906042213 | 58 | 310 | 3.0 | 4.0 | 0.00 | 0.00 | 0.00 | 74 | 1023.6 |
| 20260906041712 | 58 | 306 | 3.0 | 4.0 | 0.00 | 0.00 | 0.00 | 74 | 1023.6 |
| 20260906041212 | 58 | 301 | 3.0 | 4.0 | 0.00 | 0.00 | 0.00 | 73 | 1023.6 |
| 20260906040708 | 58 | 297 | 2.0 | 4.0 | 0.00 | 0.00 | 0.00 | 73 | 1023.5 |
| 20260906040220 | 59 | 297 | 2.0 | 4.0 | 0.00 | 0.00 | 0.00 | 73 | 1023.4 |
| 20260906035709 | 59 | 284 | 2.0 | 4.0 | 0.00 | 0.00 | 0.00 | 72 | 1023.4 |
| 20260906035207 | 59 | 295 | 2.0 | 5.0 | 0.00 | 0.00 | 0.00 | 72 | 1023.4 |
| 20260906034710 | 59 | 287 | 2.0 | 5.0 | 0.00 | 0.00 | 0.00 | 72 | 1023.4 |
| 20260906034217 | 59 | 307 | 2.0 | 5.0 | 0.00 | 0.00 | 0.00 | 72 | 1023.4 |
| 20260906033706 | 60 | 321 | 2.0 | 5.0 | 0.00 | 0.00 | 0.00 | 71 | 1023.3 |
| 20260906033246 | 60 | 309 | 2.0 | 4.0 | 0.00 | 0.00 | 0.00 | 70 | 1023.3 |
| 20260906032713 | 60 | 333 | 2.0 | 4.0 | 0.00 | 0.00 | 0.00 | 70 | 1023.2 |
| 20260906031712 | 60 | 317 | 2.0 | 5.0 | 0.00 | 0.00 | 0.00 | 69 | 1023.2 |
| 20260906031211 | 60 | 324 | 2.0 | 5.0 | 0.00 | 0.00 | 0.00 | 69 | 1023.1 |
| 20260906030712 | 60 | 317 | 2.0 | 5.0 | 0.00 | 0.00 | 0.00 | 68 | 1023.1 |
| 20260906030206 | 60 | 328 | 2.0 | 3.0 | 0.00 | 0.00 | 0.00 | 67 | 1023.1 |
| 20260906025716 | 61 | 325 | 2.0 | 3.0 | 0.00 | 0.00 | 0.00 | 67 | 1023.1 |
| 20260906024211 | 61 | 302 | 2.0 | 4.0 | 0.00 | 0.00 | 0.00 | 66 | 1023.2 |
| 20260906023718 | 61 | 300 | 2.0 | 4.0 | 0.00 | 0.00 | 0.00 | 65 | 1023.2 |
| 20260906023208 | 61 | 302 | 3.0 | 4.0 | 0.00 | 0.00 | 0.00 | 65 | 1023.2 |
| 20260906022208 | 62 | 300 | 2.0 | 4.0 | 0.00 | 0.00 | 0.00 | 65 | 1023.2 |
| 20260906021706 | 62 | 285 | 3.0 | 4.0 | 0.00 | 0.00 | 0.00 | 65 | 1023.2 |
| 20260906021211 | 62 | 289 | 3.0 | 4.0 | 0.00 | 0.00 | 0.00 | 65 | 1023.2 |
| 20260906020207 | 63 | 301 | 2.0 | 4.0 | 0.00 | 0.00 | 0.00 | 64 | 1023.2 |
| 20260906015705 | 63 | 300 | 2.0 | 4.0 | 0.00 | 0.00 | 0.00 | 64 | 1023.1 |
| 20260906015215 | 63 | 288 | 2.0 | 4.0 | 0.00 | 0.00 | 0.00 | 63 | 1023.1 |
| 20260906014720 | 64 | 308 | 2.0 | 4.0 | 0.00 | 0.00 | 0.00 | 63 | 1022.9 |
| 20260906014207 | 64 | 294 | 2.0 | 5.0 | 0.00 | 0.00 | 0.00 | 62 | 1022.9 |
| 20260906013718 | 64 | 304 | 3.0 | 5.0 | 0.00 | 0.00 | 0.00 | 62 | 1022.9 |
| 20260906013219 | 64 | 297 | 3.0 | 10.0 | 0.00 | 0.00 | 0.00 | 62 | 1023.0 |
| 20260906012210 | 64 | 299 | 4.0 | 10.0 | 0.00 | 0.00 | 0.00 | 62 | 1022.9 |
| 20260906011713 | 64 | 315 | 4.0 | 7.0 | 0.00 | 0.00 | 0.00 | 62 | 1022.9 |
| 20260906011218 | 65 | 288 | 4.0 | 6.0 | 0.00 | 0.00 | 0.00 | 62 | 1022.8 |
| 20260906010710 | 65 | 317 | 3.0 | 5.0 | 0.00 | 0.00 | 0.00 | 61 | 1022.8 |
| 20260906010208 | 65 | 286 | 3.0 | 5.0 | 0.00 | 0.00 | 0.00 | 59 | 1022.8 |
| 20260906004708 | 66 | 316 | 3.0 | 10.0 | 0.00 | 0.00 | 0.00 | 58 | 1022.5 |
| 20260906004215 | 66 | 296 | 4.0 | 11.0 | 0.00 | 0.00 | 0.00 | 58 | 1022.6 |
| 20260906003717 | 66 | 302 | 5.0 | 11.0 | 0.00 | 0.00 | 0.00 | 57 | 1022.5 |
| 20260906003205 | 66 | 322 | 5.0 | 12.0 | 0.00 | 0.00 | 0.00 | 57 | 1022.5 |
| 20260906001705 | 67 | 329 | 7.0 | 14.0 | 0.00 | 0.00 | 0.00 | 58 | 1022.4 |
| 20260906001207 | 67 | 338 | 8.0 | 14.0 | 0.00 | 0.00 | 0.00 | 58 | 1022.5 |
| 20260906000713 | 67 | 335 | 9.0 | 14.0 | 0.00 | 0.00 | 0.00 | 58 | 1022.5 |
| 20260906000213 | 66 | 318 | 9.0 | 12.0 | 0.00 | 0.00 | 0.00 | 59 | 1022.4 |
| 20260905235714 | 66 | 320 | 7.0 | 16.0 | 0.00 | 0.00 | 0.00 | 61 | 1022.2 |
| 20260905235215 | 67 | 347 | 7.0 | 16.0 | 0.00 | 0.00 | 0.00 | 63 | 1022.2 |
| 20260905234715 | 66 | 288 | 7.0 | 12.0 | 0.00 | 0.00 | 0.00 | 64 | 1022.2 |
| 20260905233719 | 67 | 332 | 4.0 | 12.0 | 0.00 | 0.00 | 0.00 | 66 | 1022.1 |
| 20260905233214 | 67 | 5 | 4.0 | 11.0 | 0.00 | 0.00 | 0.00 | 66 | 1022.0 |
| 20260905232711 | 67 | 310 | 5.0 | 11.0 | 0.00 | 0.00 | 0.00 | 65 | 1022.0 |
| 20260905232216 | 67 | 337 | 5.0 | 11.0 | 0.00 | 0.00 | 0.00 | 65 | 1021.9 |
| 20260905231711 | 67 | 329 | 5.0 | 10.0 | 0.00 | 0.00 | 0.00 | 66 | 1021.8 |
| 20260905231219 | 67 | 312 | 4.0 | 9.0 | 0.00 | 0.00 | 0.00 | 66 | 1021.7 |
| 20260905225716 | 67 | 329 | 4.0 | 11.0 | 0.00 | 0.00 | 0.00 | 66 | 1021.5 |
| 20260905224706 | 66 | 309 | 5.0 | 10.0 | 0.00 | 0.00 | 0.00 | 68 | 1021.5 |
| 20260905224210 | 66 | 341 | 5.0 | 15.0 | 0.00 | 0.00 | 0.00 | 68 | 1021.4 |
| 20260905223711 | 65 | 295 | 6.0 | 15.0 | 0.00 | 0.00 | 0.00 | 69 | 1021.2 |
| 20260905223210 | 65 | 312 | 6.0 | 11.0 | 0.00 | 0.00 | 0.00 | 69 | 1021.2 |
| 20260905221714 | 64 | 300 | 5.0 | 8.0 | 0.00 | 0.00 | 0.00 | 70 | 1021.1 |
| 20260905221215 | 63 | 296 | 3.0 | 6.0 | 0.00 | 0.00 | 0.00 | 70 | 1021.2 |
| 20260905220718 | 63 | 283 | 2.0 | 6.0 | 0.00 | 0.00 | 0.00 | 70 | 1021.1 |
| 20260905220219 | 64 | 304 | 2.0 | 3.0 | 0.00 | 0.00 | 0.00 | 70 | 1021.2 |
| 20260905215707 | 64 | 295 | 1.0 | 4.0 | 0.00 | 0.00 | 0.00 | 70 | 1021.1 |
| 20260905214708 | 64 | 276 | 2.0 | 4.0 | 0.00 | 0.00 | 0.00 | 68 | 1020.9 |
| 20260905214212 | 64 | 280 | 2.0 | 4.0 | 0.00 | 0.00 | 0.00 | 68 | 1020.9 |
| 20260905213705 | 64 | 285 | 2.0 | 4.0 | 0.00 | 0.00 | 0.00 | 68 | 1020.9 |
| 20260905213209 | 64 | 275 | 2.0 | 8.0 | 0.00 | 0.00 | 0.00 | 68 | 1020.9 |
| 20260905212717 | 64 | 293 | 3.0 | 8.0 | 0.00 | 0.00 | 0.00 | 68 | 1020.9 |
| 20260905212213 | 64 | 286 | 3.0 | 8.0 | 0.00 | 0.00 | 0.00 | 68 | 1020.8 |
| 20260905211719 | 64 | 298 | 2.0 | 4.0 | 0.00 | 0.00 | 0.00 | 67 | 1020.8 |
| 20260905210710 | 64 | 290 | 2.0 | 4.0 | 0.00 | 0.00 | 0.00 | 67 | 1020.7 |
| 20260905210214 | 65 | 309 | 3.0 | 4.0 | 0.00 | 0.00 | 0.00 | 66 | 1020.7 |
| 20260905205716 | 65 | 311 | 2.0 | 4.0 | 0.00 | 0.00 | 0.00 | 67 | 1020.8 |
| 20260905205213 | 65 | 321 | 2.0 | 6.0 | 0.00 | 0.00 | 0.00 | 66 | 1020.8 |
| 20260905204715 | 65 | 302 | 2.0 | 6.0 | 0.00 | 0.00 | 0.00 | 66 | 1020.8 |
| 20260905204218 | 65 | 282 | 2.0 | 6.0 | 0.00 | 0.00 | 0.00 | 66 | 1020.8 |
| 20260905203717 | 65 | 269 | 3.0 | 4.0 | 0.00 | 0.00 | 0.00 | 65 | 1020.8 |
| 20260905203211 | 66 | 297 | 3.0 | 4.0 | 0.00 | 0.00 | 0.00 | 65 | 1020.8 |
| 20260905202721 | 66 | 279 | 3.0 | 4.0 | 0.00 | 0.00 | 0.00 | 64 | 1020.8 |
| 20260905202232 | 66 | 301 | 2.0 | 3.0 | 0.00 | 0.00 | 0.00 | 65 | 1020.8 |
| 20260905201713 | 66 | 298 | 1.0 | 3.0 | 0.00 | 0.00 | 0.00 | 65 | 1020.8 |